Terug naar catalogus

SL-8 DEB

ActiefLEO
NORAD 21161·DEBRIS·🇷🇺 Russia

Gelanceerd Feb 12, 1991 vanaf Plesetsk Cosmodrome

Loading…

Volgende Passages (komende 24 uur)

TLE

VersSource: Space-Track

Epoch: Sep 14, 2026, 14:04 UTC

1 21161U 91009Y   26257.58631359  .00000023  00000-0  34425-3 0  9998
2 21161  74.0715 125.8968 0131682 136.0310 237.7028 12.19453622581582

Volg SL-8 DEB in realtime met AllMySat

Download on the App Store